サイディング・スプリング彗星

162P/Siding Spring (2020)

English version
Home page
Updated on June 14, 2021

---------------------------------------------------------------------

・ プロフィール

・ 写真集

・ 軌道要素

Epoch 2020 Dec. 17.0 TT = JDT 2459200.5
T 2020 Dec. 7.82009 TT                                  Rudenko
q   1.2891350            (2000.0)            P               Q
n   0.18141176     Peri.  357.13423     +0.87966221     -0.41197232
a   3.0904787      Node    30.91114     +0.44503718     +0.53678733
e   0.5828688      Incl.   27.55495     +0.16773884     +0.73630033
P   5.43
From 2873 observations 1990 Mar. 23-2021 Apr. 12, mean residual 0".8.

・ 星図

・ 光度変化

        H = 13.7  G = 0.15

---------------------------------------------------------------------

軌道要素はM.P.E.C. 2021-J28に掲載されたものです。
星図はステラナビゲータ Ver.10 (アストロアーツ) で作成したものです。
光度グラフはComet for Windowsで作成したものです。

---------------------------------------------------------------------

Copyright(C) Seiichi Yoshida (comet@aerith.net). All rights reserved.